[[{"header":{"parameterUnit":"m.s-1","parameterCategory":1,"la1":30.2991,"la2":30.254,"lo1":-89.0895,"lo2":-89.0444,"dy":0.0017,"dx":0.0017,"nx":28,"ny":28,"refTime":"2024-12-18T09:00:00:Z","depth":0,"parameterNumber":2,"parameterNumberName":"U-component_of_WINDS"},"data":[0,0,0,0,0,0,0,0,0,0,0,0,0,0,0,0,0,0,0,0,0,0,0,0,0,0,0,0,0,0,0,0,0,0,0,0,0,0,0,0,0,0,0,0,0,0,0,0,0,0,0,0,0,0,0,0,0,0,0.8115,0.8115,0,0.8081,0.808,0.808,0.8039,0.8038,0.8038,0.8037,0.8003,0.8003,0.8002,0,0,0,0,0,0,0,0,0,0,0,0,0,0.8147,0.8147,0.8115,0.8115,0.8114,0.8081,0.808,0.808,0.8039,0.8038,0.8038,0.8037,0.8003,0.8003,0.8002,0,0,0,0,0,0,0,0,0,0,0,0,0,0.8125,0.8147,0.8115,0.809,0.8087,0.8081,0.808,0.808,0.8039,0.8038,0.8037,0.8037,0.8003,0.8003,0.8002,0.8018,0,0,0.8001,0.8,0,0,0,0,0,0,0,0,0.8127,0.8124,0.8094,0.8092,0.8089,0.8063,0.8079,0.8059,0.804,0.8058,0.8037,0.8036,0.8024,0.8022,0.8017,0.8016,0.8015,0.8001,0.8,0.8,0.8,0,0,0,0,0,0,0,0.8128,0.8125,0.8101,0.8094,0.809,0.8081,0.8077,0.8075,0.8046,0.8056,0.8053,0.8049,0.8022,0.8018,0.8016,0.8014,0.8001,0.8,0.8,0.8,0.8026,0.8027,0,0,0,0,0,0,0.8133,0.8127,0.8103,0.81,0.8106,0.8081,0.8076,0.8072,0.8046,0.8041,0.805,0.8048,0.8019,0.8017,0.8015,0.8032,0.8,0.8,0.7999,0.8025,0.8026,0.8027,0,0,0,0,0,0,0.8134,0.8131,0.8104,0.8113,0.8109,0.8081,0.8077,0.8072,0.8068,0.8042,0.8037,0.8051,0.8018,0.8015,0.8018,0.803,0.7999,0.7999,0.8024,0.8025,0.8027,0.8067,0,0,0,0,0,0,0.8135,0.8132,0.8137,0.8113,0.8108,0.8107,0.8078,0.8072,0.8067,0.8063,0.8041,0.8037,0.8017,0.8019,0.8017,0.8029,0.7999,0.8022,0.8024,0.8026,0.8064,0.807,0.8074,0,0,0,0,0,0.8137,0.815,0.8138,0.8135,0.8114,0.8108,0.8105,0.8082,0.8068,0.8073,0.8057,0.8037,0.8029,0.8019,0.8017,0.8029,0.8022,0.8024,0.8026,0.8062,0.8069,0.8074,0,0,0,0,0,0,0.8177,0.8146,0.8132,0.8138,0.8126,0.8101,0.8107,0.809,0.8081,0.8078,0.805,0.8046,0.8052,0.804,0.803,0.8044,0.8023,0.8025,0.8051,0.8057,0.8061,0.8064,0.7998,0,0,0,0,0,0.8186,0.8183,0.8157,0.8165,0.8159,0.8134,0.8131,0.8114,0.81,0.8095,0.8079,0.8066,0.8061,0.8058,0.8052,0.8062,0.8058,0.807,0.8075,0.8079,0.8081,0.8087,0.8092,0.8034,0.8034,0.8034,0,0,0.8206,0.8189,0.8189,0.8172,0.8161,0.8159,0.813,0.8129,0.8128,0.8095,0.8096,0.8084,0.8068,0.8075,0.8077,0.8066,0.8096,0.8082,0.8085,0.8085,0.809,0.8095,0.81,0.8036,0.8036,0.8035,0,0,0.8241,0.8227,0.8233,0.8222,0.8205,0.8188,0.819,0.8167,0.8158,0.8159,0.8134,0.8132,0.8123,0.8114,0.8108,0.814,0.8122,0.8139,0.8164,0.817,0.8175,0.8179,0.8191,0.8196,0.8141,0.8141,0.8141,0,0.8267,0.8263,0.8238,0.8239,0.8233,0.8203,0.8209,0.8199,0.8181,0.8178,0.8166,0.8155,0.8142,0.8147,0.8155,0.815,0.8152,0.8141,0.8176,0.818,0.8183,0.8195,0.8199,0.8143,0.8143,0.8142,0.8142,0,0.8297,0.8295,0.8301,0.8285,0.8279,0.8283,0.8259,0.8256,0.8241,0.8226,0.8227,0.8211,0.8202,0.8201,0.8186,0.8204,0.8198,0.8181,0.8159,0.8191,0.8202,0.8206,0.8146,0.8145,0.8145,0.8144,0,0,0.8357,0.8326,0.8329,0.8321,0.8301,0.8298,0.8301,0.8291,0.829,0.8279,0.8281,0.8274,0.8259,0.8252,0.8235,0.8241,0.8268,0.8223,0.8223,0.8233,0.8289,0.8302,0.8307,0.8256,0.8257,0.8257,0.829,0,0.8388,0.839,0.8368,0.8376,0.8374,0.8346,0.8348,0.8336,0.8323,0.8319,0.8304,0.83,0.828,0.8276,0.828,0.8264,0.8279,0.8261,0.8258,0.8258,0.8264,0.8312,0.8326,0.8358,0.8294,0.8295,0.8295,0,0.8426,0.8416,0.8425,0.8404,0.8402,0.8405,0.8395,0.8391,0.8377,0.8367,0.836,0.8341,0.8342,0.8321,0.8324,0.8312,0.831,0.8302,0.8303,0.8302,0.8279,0.8314,0.8367,0.8373,0.8301,0.8301,0.83,0,0.8469,0.8459,0.8463,0.8457,0.8433,0.8435,0.8425,0.841,0.8406,0.8398,0.8395,0.8386,0.8382,0.8376,0.8356,0.8342,0.8361,0.8338,0.8353,0.8354,0.8359,0.8359,0.8413,0.8356,0.8356,0.8356,0.8356,0,0.8508,0.8514,0.8482,0.8484,0.8491,0.8466,0.8473,0.846,0.8447,0.8447,0.8422,0.8423,0.8395,0.8393,0.8377,0.8382,0.838,0.8372,0.8368,0.8375,0.8376,0.8373,0.8371,0.8357,0.8357,0.8357,0.8356,0,0.8558,0.8536,0.8539,0.8516,0.851,0.8516,0.8497,0.8498,0.8483,0.8484,0.8482,0.8459,0.8455,0.8434,0.8425,0.8414,0.8425,0.8416,0.843,0.8427,0.8444,0.8443,0.8499,0.8506,0.8444,0.8444,0.8445,0,0.8584,0.8588,0.8566,0.8564,0.8555,0.8552,0.8548,0.8523,0.852,0.8505,0.8509,0.8503,0.8497,0.8492,0.8475,0.8468,0.8459,0.8479,0.8458,0.8465,0.846,0.8461,0.8461,0.8484,0.8485,0.8485,0.8486,0,0.8633,0.8622,0.8617,0.8608,0.8604,0.8596,0.8586,0.8586,0.8559,0.8557,0.8552,0.8548,0.8539,0.8534,0.8524,0.8515,0.8496,0.8493,0.8496,0.8504,0.8512,0.8508,0.8443,0.8492,0.8491,0.8491,0.849,0.849,0.8672,0.8675,0.866,0.8655,0.8645,0.8637,0.8638,0.8623,0.8619,0.861,0.8595,0.8593,0.858,0.8565,0.8557,0.8556,0.8545,0.8549,0.8551,0.8552,0.8556,0.8511,0.8554,0.8554,0.8553,0.8553,0.8553,0,0.8721,0.871,0.8706,0.8693,0.869,0.8672,0.8661,0.8659,0.8658,0.8646,0.8641,0.8637,0.8632,0.8614,0.8607,0.8609,0.8601,0.8609,0.8609,0.8607,0.8566,0.8564,0.8616,0.8616,0.8616,0.8616,0.8616,0.8616,0.8746,0.875,0.8738,0.8737,0.8726,0.8724,0.8719,0.8712,0.8703,0.8699,0.8695,0.8683,0.8669,0.8661,0.8656,0.8651,0.865,0.8661,0.8653,0.8616,0.861,0.8604,0.8602,0.8661,0.8661,0.8694,0.8695,0.8695]},{"header":{"parameterUnit":"m.s-1","parameterCategory":1,"la1":30.2991,"la2":30.254,"lo1":-89.0895,"lo2":-89.0444,"dy":0.0017,"dx":0.0017,"nx":28,"ny":28,"refTime":"2024-12-18T09:00:00:Z","depth":0,"parameterNumber":3,"parameterNumberName":"V-component_of_WINDS"},"data":[0,0,0,0,0,0,0,0,0,0,0,0,0,0,0,0,0,0,0,0,0,0,0,0,0,0,0,0,0,0,0,0,0,0,0,0,0,0,0,0,0,0,0,0,0,0,0,0,0,0,0,0,0,0,0,0,0,0,-2.5849,-2.5851,0,-2.5989,-2.5991,-2.5992,-2.6061,-2.6061,-2.6061,-2.6061,-2.6203,-2.6206,-2.621,0,0,0,0,0,0,0,0,0,0,0,0,0,-2.5644,-2.5647,-2.5849,-2.5851,-2.5852,-2.5989,-2.5991,-2.5993,-2.6061,-2.6061,-2.6061,-2.6061,-2.6202,-2.6206,-2.6211,0,0,0,0,0,0,0,0,0,0,0,0,0,-2.5753,-2.5648,-2.5849,-2.5903,-2.5909,-2.5988,-2.5991,-2.5993,-2.6061,-2.6061,-2.6061,-2.6061,-2.62,-2.6206,-2.6211,-2.6247,0,0,-2.6229,-2.6231,0,0,0,0,0,0,0,0,-2.5747,-2.5761,-2.5893,-2.5899,-2.5906,-2.6007,-2.5971,-2.6078,-2.6061,-2.6003,-2.6061,-2.6061,-2.6138,-2.6149,-2.6175,-2.6253,-2.6259,-2.6229,-2.6233,-2.6235,-2.6237,0,0,0,0,0,0,0,-2.5739,-2.5755,-2.5904,-2.5895,-2.5903,-2.5921,-2.5937,-2.5991,-2.6069,-2.6008,-2.6014,-2.6029,-2.6141,-2.6169,-2.6179,-2.6261,-2.6229,-2.6234,-2.6237,-2.624,-2.6383,-2.6383,0,0,0,0,0,0,-2.5723,-2.5748,-2.59,-2.5909,-2.5825,-2.5925,-2.5942,-2.5975,-2.6068,-2.6083,-2.6029,-2.6032,-2.6159,-2.6172,-2.6184,-2.6236,-2.6235,-2.624,-2.6244,-2.6382,-2.6383,-2.6383,0,0,0,0,0,0,-2.5718,-2.5736,-2.5894,-2.583,-2.5852,-2.5929,-2.5965,-2.5978,-2.6006,-2.6084,-2.6098,-2.6043,-2.616,-2.6176,-2.6232,-2.6241,-2.6243,-2.6248,-2.6382,-2.6382,-2.6383,-2.6336,0,0,0,0,0,0,-2.5712,-2.5733,-2.5746,-2.583,-2.5855,-2.5939,-2.5965,-2.5981,-2.6015,-2.602,-2.6101,-2.6114,-2.6161,-2.6223,-2.6238,-2.6249,-2.6252,-2.6381,-2.6382,-2.6383,-2.6337,-2.6335,-2.6334,0,0,0,0,0,-2.5704,-2.5726,-2.5747,-2.5765,-2.5873,-2.5939,-2.5953,-2.6007,-2.6016,-2.6031,-2.6082,-2.6112,-2.6238,-2.6228,-2.6245,-2.6259,-2.6381,-2.6382,-2.6383,-2.6338,-2.6336,-2.6334,0,0,0,0,0,0,-2.564,-2.5738,-2.5762,-2.5811,-2.5867,-2.595,-2.597,-2.6002,-2.6055,-2.6058,-2.6122,-2.614,-2.6191,-2.623,-2.6218,-2.6301,-2.6313,-2.6317,-2.6273,-2.6271,-2.6269,-2.6259,-2.6257,0,0,0,0,0,-2.5632,-2.5677,-2.576,-2.5796,-2.5823,-2.5892,-2.5923,-2.596,-2.602,-2.6043,-2.6098,-2.6155,-2.6209,-2.6242,-2.6295,-2.6344,-2.6365,-2.6362,-2.636,-2.6358,-2.6361,-2.6395,-2.6396,-2.6386,-2.6386,-2.6386,0,0,-2.5614,-2.5674,-2.5698,-2.5785,-2.5832,-2.588,-2.5911,-2.5958,-2.5995,-2.605,-2.6108,-2.6151,-2.6219,-2.6273,-2.63,-2.6308,-2.6369,-2.6359,-2.6357,-2.6361,-2.6396,-2.6397,-2.6398,-2.6386,-2.6386,-2.6386,0,0,-2.5608,-2.5656,-2.5694,-2.5742,-2.5814,-2.5861,-2.587,-2.5951,-2.5982,-2.6041,-2.6086,-2.6131,-2.6219,-2.6268,-2.6304,-2.6323,-2.6354,-2.6338,-2.6328,-2.636,-2.6361,-2.6362,-2.6373,-2.6375,-2.6341,-2.6341,-2.6341,0,-2.5577,-2.565,-2.5708,-2.5756,-2.5794,-2.5849,-2.5889,-2.5933,-2.6018,-2.6044,-2.6052,-2.6169,-2.6219,-2.6287,-2.6293,-2.6319,-2.6334,-2.6329,-2.6356,-2.6358,-2.636,-2.6371,-2.6374,-2.6339,-2.6339,-2.6339,-2.6339,0,-2.5611,-2.5661,-2.5683,-2.5767,-2.5808,-2.5851,-2.5918,-2.5953,-2.5988,-2.6035,-2.6097,-2.6159,-2.6228,-2.6247,-2.628,-2.6322,-2.6326,-2.6344,-2.6357,-2.6358,-2.6369,-2.6373,-2.6336,-2.6336,-2.6337,-2.6338,0,0,-2.5564,-2.5685,-2.5692,-2.5733,-2.582,-2.586,-2.5908,-2.5977,-2.6007,-2.6066,-2.6109,-2.6186,-2.6206,-2.6247,-2.6287,-2.6315,-2.6331,-2.6331,-2.6334,-2.6332,-2.6387,-2.6374,-2.6377,-2.6353,-2.6353,-2.6354,-2.6382,0,-2.5572,-2.566,-2.5717,-2.5782,-2.5832,-2.5888,-2.593,-2.5989,-2.6035,-2.6085,-2.6136,-2.6191,-2.6211,-2.6237,-2.6268,-2.6323,-2.6344,-2.6321,-2.6396,-2.6398,-2.6378,-2.6382,-2.6367,-2.639,-2.6386,-2.6387,-2.6388,0,-2.5591,-2.5652,-2.5723,-2.581,-2.5833,-2.5869,-2.5941,-2.5987,-2.6056,-2.6089,-2.6138,-2.6179,-2.6235,-2.6244,-2.6323,-2.6306,-2.6341,-2.6373,-2.6375,-2.6385,-2.6393,-2.6395,-2.6398,-2.6403,-2.6394,-2.6394,-2.6393,0,-2.5554,-2.5653,-2.571,-2.5743,-2.5845,-2.587,-2.5914,-2.5984,-2.6023,-2.6086,-2.6113,-2.618,-2.6217,-2.6269,-2.633,-2.633,-2.6404,-2.6417,-2.6434,-2.6433,-2.6448,-2.6446,-2.6459,-2.6466,-2.6466,-2.6466,-2.6466,0,-2.5558,-2.56,-2.5696,-2.573,-2.5781,-2.5848,-2.5896,-2.5945,-2.6007,-2.6055,-2.6107,-2.615,-2.6226,-2.6279,-2.6327,-2.6388,-2.6403,-2.6432,-2.6445,-2.6429,-2.6425,-2.6453,-2.6453,-2.6467,-2.6467,-2.6467,-2.6466,0,-2.5524,-2.5589,-2.5656,-2.5749,-2.5773,-2.5807,-2.5887,-2.5925,-2.5976,-2.6035,-2.6053,-2.6133,-2.6199,-2.6265,-2.6353,-2.6385,-2.6447,-2.6462,-2.6423,-2.643,-2.6446,-2.6444,-2.6478,-2.6488,-2.6486,-2.6485,-2.6485,0,-2.5522,-2.5557,-2.5655,-2.5691,-2.5734,-2.5791,-2.5833,-2.5902,-2.5944,-2.603,-2.6058,-2.6129,-2.6189,-2.6293,-2.6359,-2.6429,-2.6447,-2.6455,-2.6458,-2.6443,-2.6451,-2.6449,-2.6455,-2.6453,-2.6452,-2.6452,-2.6452,0,-2.5513,-2.5546,-2.5604,-2.5677,-2.5727,-2.5786,-2.5848,-2.5875,-2.5956,-2.6001,-2.6071,-2.6118,-2.6211,-2.6282,-2.636,-2.6406,-2.6444,-2.6451,-2.6459,-2.6444,-2.6422,-2.6437,-2.6421,-2.6449,-2.645,-2.645,-2.645,-2.645,-2.5498,-2.5533,-2.5609,-2.5675,-2.573,-2.5788,-2.5829,-2.5888,-2.5947,-2.6029,-2.6066,-2.6138,-2.6212,-2.6322,-2.6368,-2.6426,-2.6435,-2.6446,-2.645,-2.6452,-2.645,-2.6411,-2.644,-2.644,-2.6441,-2.6441,-2.6441,0,-2.5494,-2.5547,-2.5607,-2.5694,-2.5747,-2.5779,-2.5851,-2.5893,-2.5956,-2.6023,-2.6083,-2.6166,-2.6236,-2.631,-2.6386,-2.6418,-2.6438,-2.6436,-2.6435,-2.6446,-2.6436,-2.6422,-2.642,-2.642,-2.642,-2.642,-2.642,-2.642,-2.5498,-2.5562,-2.5604,-2.5697,-2.575,-2.5822,-2.5861,-2.5916,-2.597,-2.6061,-2.6121,-2.6169,-2.6241,-2.6323,-2.639,-2.6411,-2.6437,-2.6431,-2.6456,-2.6445,-2.6446,-2.6448,-2.6436,-2.6436,-2.6436,-2.6463,-2.6463,-2.6463]}]]